Preview of NWS' New Version of Forecast
This preview is not operational and should not be used for support decisions.

Regional Weather Roundup (RWR)

Issued by National Weather Service (NWS)

                            
000
ASUS43 KLSX 181107
RWRMO 

WEATHER SUMMARY FOR MISSOURI
NATIONAL WEATHER SERVICE SPRINGFIELD MO
600 AM CDT THU JUL 18 2019

NOTE: "FAIR" INDICATES FEW OR NO CLOUDS BELOW 12,000 FEET WITH NO
       SIGNIFICANT WEATHER AND/OR OBSTRUCTIONS TO VISIBILITY.
       CURRENT SKY AND/OR WEATHER CONDITIONS ARE NOT AVAILABLE FOR
       CHILLICOTHE AND FARMINGTON.

MOZ001>031-035>038-043-044-053-054-181200-
...NORTHERN AND WESTERN MISSOURI...
  
CITY           SKY/WX    TMP DP  RH WIND       PRES   REMARKS
KANSAS CTY INT MOCLDY    78  71  79 S15       29.84F                  
KANSAS C DTWN  CLEAR     81  71  71 S9        29.84F                  
LEE'S SUMMIT   CLEAR     79  70  74 S16G28    29.87F                  
ST JOSEPH      CLEAR     81  71  71 S16G23    29.80F                  
CHILLICOTHE      N/A     80  72  76 S12G21    29.84F                  
KIRKSVILLE     CLEAR     77  72  84 SW13G20   29.86S                  
     
$$
MOZ066>068-077>081-088>096-101>105-181200-
...SOUTHWEST MISSOURI...
  
CITY           SKY/WX    TMP DP  RH WIND       PRES   REMARKS
SPRINGFIELD    CLEAR     76  72  87 S10       29.98S                  
JOPLIN         CLEAR     78  72  81 S16       29.95S                  
               
$$
MOZ032>034-039>042-045>050-055>058-069>072-181200-
...CENTRAL MISSOURI...  
  
CITY           SKY/WX    TMP DP  RH WIND       PRES   REMARKS
COLUMBIA       CLEAR     77  70  79 S15G24    29.92S                  
ROLLA          CLEAR     71  68  90 S10       29.97S                  
SEDALIA        CLEAR     74  73  97 SW14      29.91S                  
WHITEMAN AFB   PTCLDY    78  73  83 SW17      29.85F                  
WARRENSBURG    CLEAR     77  70  78 S10G16    29.89F                  
OSAGE BEACH    CLEAR     74  72  93 S8        29.95R                  
               
$$
MOZ051-052-059>065-181200-
...EAST CENTRAL MISSOURI...
  
CITY           SKY/WX    TMP DP  RH WIND       PRES   REMARKS
ST LOUIS INTL  MOCLDY    76  67  73 SW8       29.94R                  
SPIRIT OF STL  CLEAR     74  70  87 SW3       29.92R                  
ST CHARLES       N/A    N/A N/A N/A MISG      29.92S                  
                   
$$
MOZ072>076-082>087-097>100-106>115-181200-
...SOUTH CENTRAL AND SOUTHEAST MISSOURI...
  
CITY           SKY/WX    TMP DP  RH WIND       PRES   REMARKS
CAPE GIRARDEAU FAIR      74  69  85 SE6       29.99R                  
FARMINGTON     CLEAR     72  69  90 SE6       29.99R                  
POPLAR BLUFF   FAIR      74  73  97 CALM      29.98R                  
WEST PLAINS    CLEAR     74  71  91 S3        30.03R                  
                                       
$$